period_start,C,m1,H,J0,J1,J2,J3,J4,J5,JA,JB,JC,JD,JJ,JK,JN,#
2017-04-20 00:03:14,0.05,2.35,0.00,24.37,27.65,31.16,14.33,48.83,1013.70,2027.11,2649.29,2498.02,2838.27,599.31,590.91,33.00,0000 0000 0000 0000 000000
2017-04-20 00:08:16,0.07,2.36,0.00,24.65,27.65,31.14,14.41,48.67,1013.70,2027.08,2648.28,2497.19,2837.53,600.25,591.31,33.05,0000 0000 0000 0000 000000
2017-04-20 00:13:16,0.07,2.36,0.00,24.64,27.67,30.96,14.47,48.68,1013.70,2027.05,2647.06,2496.51,2836.60,600.27,591.33,33.10,0000 0000 0000 0000 000000
2017-04-20 00:18:17,0.06,2.36,0.00,24.36,27.67,30.94,14.33,48.71,1013.69,2027.01,2645.83,2495.77,2835.65,599.65,591.44,33.15,0000 0000 0000 0000 000000
2017-04-20 00:23:19,0.06,2.37,0.00,23.85,27.67,31.04,14.42,48.93,1013.69,2027.00,2644.65,2495.02,2834.81,600.00,592.65,33.20,0000 0000 0000 0000 000000
2017-04-20 00:28:20,0.07,2.37,0.00,23.49,27.66,31.06,14.40,49.03,1013.69,2027.01,2643.50,2494.30,2833.99,599.79,593.12,33.25,0000 0000 0000 0000 000000
2017-04-20 00:33:22,0.05,2.37,0.00,23.53,27.63,30.83,14.45,48.96,1013.69,2027.06,2642.40,2493.98,2833.17,599.67,592.94,33.30,0000 0000 0000 0000 000000
2017-04-20 00:38:23,0.10,2.38,0.00,23.54,27.59,30.58,14.40,48.89,1013.66,2027.42,2641.58,2493.29,2832.82,599.86,593.05,33.35,0000 0000 0000 0000 000000
2017-04-20 00:43:25,0.23,2.38,0.00,23.39,27.56,30.34,14.42,48.74,1013.37,2027.86,2639.75,2491.87,2830.93,599.81,593.15,33.40,0000 0000 0000 0000 000000
2017-04-20 00:48:26,0.07,2.39,0.00,23.05,27.53,29.93,14.48,48.80,1013.21,2027.98,2638.22,2490.05,2829.05,600.04,594.09,33.45,0000 0000 0000 0000 000000
2017-04-20 00:53:27,0.06,2.39,0.00,22.82,27.49,29.71,14.47,48.64,1013.20,2027.99,2637.49,2489.64,2828.48,600.08,594.52,33.50,0000 0000 0000 0000 000000
2017-04-20 00:58:28,0.03,2.40,0.00,22.78,27.45,29.50,14.52,48.85,1013.21,2028.01,2636.80,2489.02,2828.00,600.04,594.65,33.55,0000 0000 0000 0000 000000
2017-04-20 01:03:30,0.18,2.40,0.00,22.60,27.41,29.32,14.50,48.71,1013.20,2028.09,2634.96,2488.13,2826.64,599.76,594.71,33.60,0000 0000 0000 0000 000000
2017-04-20 01:08:31,0.23,2.42,0.00,23.05,27.35,29.33,14.44,49.31,1013.20,2028.53,2631.21,2485.84,2823.94,600.27,594.17,33.65,0000 0000 0000 0000 000000
2017-04-20 01:13:33,0.08,2.42,0.00,23.61,27.28,29.72,14.44,49.05,1013.21,2028.96,2630.04,2485.04,2823.08,600.20,592.78,33.70,0000 0000 0000 0000 000000
2017-04-20 01:18:34,0.06,2.43,0.00,23.85,27.22,29.95,14.41,49.17,1013.20,2028.98,2629.00,2484.56,2822.41,599.85,592.20,33.75,0000 0000 0000 0000 000000
2017-04-20 01:23:35,0.03,2.43,0.00,24.17,27.18,29.89,14.39,49.06,1013.21,2028.99,2628.07,2484.00,2821.89,600.11,591.75,33.80,0000 0000 0000 0000 000000
2017-04-20 01:28:37,0.07,2.43,0.00,24.02,27.16,29.99,14.36,49.01,1013.20,2028.99,2627.14,2483.35,2821.07,599.87,591.84,33.86,0000 0000 0000 0000 000000
2017-04-20 01:33:38,0.05,2.43,0.00,24.11,27.15,29.93,14.38,49.10,1013.20,2028.99,2626.26,2482.80,2820.38,600.25,592.16,33.91,0000 0000 0000 0000 000000
2017-04-20 01:38:39,0.06,2.44,0.00,24.20,27.15,29.95,14.36,49.17,1013.20,2029.00,2625.28,2482.02,2819.59,600.27,591.94,33.96,0000 0000 0000 0000 000000
2017-04-20 01:43:40,0.06,2.44,0.00,24.23,27.16,30.04,14.33,49.05,1013.20,2029.00,2624.28,2481.30,2818.78,600.45,591.95,34.01,0000 0000 0000 0000 000000
2017-04-20 01:48:42,0.06,2.44,0.00,24.24,27.17,30.10,14.44,49.20,1013.20,2029.00,2623.18,2480.63,2817.95,600.20,591.72,34.06,0000 0000 0000 0000 000000
2017-04-20 01:53:43,0.05,2.45,0.00,24.31,27.20,30.14,14.42,49.19,1013.21,2029.00,2622.27,2479.98,2817.08,600.53,591.93,34.11,0000 0000 0000 0000 000000
2017-04-20 01:58:44,0.07,2.45,0.00,24.33,27.22,30.19,14.37,49.23,1013.20,2029.00,2621.29,2479.12,2816.25,599.90,591.28,34.16,0000 0000 0000 0000 000000
2017-04-20 02:03:46,0.08,2.45,0.00,24.33,27.25,30.21,14.34,49.27,1013.20,2029.00,2620.11,2478.25,2815.34,599.89,591.29,34.21,0000 0000 0000 0000 000000
2017-04-20 02:08:47,0.07,2.46,0.00,24.27,27.27,30.24,14.35,49.13,1013.19,2028.99,2618.97,2477.53,2814.46,599.78,591.42,34.26,0000 0000 0000 0000 000000
2017-04-20 02:13:48,0.07,2.46,0.00,24.29,27.29,30.27,14.35,49.11,1013.14,2028.99,2617.80,2476.77,2813.63,599.75,591.16,34.31,0000 0000 0000 0000 000000
2017-04-20 02:18:49,0.06,2.47,0.00,24.27,27.31,30.28,14.35,49.31,1013.11,2028.97,2616.62,2475.99,2812.64,599.77,591.21,34.36,0000 0000 0000 0000 000000
2017-04-20 02:23:51,0.07,2.47,0.00,24.32,27.33,30.30,14.31,49.28,1013.12,2028.97,2615.53,2475.14,2811.76,599.50,590.93,34.41,0000 0000 0000 0000 000000
2017-04-20 02:28:52,0.06,2.47,0.00,24.40,27.35,30.32,14.41,49.27,1013.04,2028.94,2614.43,2474.32,2810.85,600.07,591.34,34.46,0000 0000 0000 0000 000000
2017-04-20 02:33:54,0.06,2.48,0.00,24.37,27.37,30.34,14.33,49.31,1013.02,2028.89,2613.20,2473.58,2809.96,599.77,590.94,34.51,0000 0000 0000 0000 000000
2017-04-20 02:38:55,0.04,2.48,0.00,24.37,27.40,30.30,14.33,49.19,1012.95,2028.64,2612.01,2472.85,2809.02,599.99,591.21,34.56,0000 0000 0000 0000 000000
2017-04-20 02:43:56,0.04,2.48,0.00,24.37,27.40,30.26,14.38,49.17,1012.85,2028.40,2610.85,2472.03,2808.10,599.86,590.96,34.61,0000 0000 0000 0000 000000
2017-04-20 02:48:58,0.08,2.49,0.00,24.45,27.42,30.33,14.36,49.20,1012.82,2028.36,2609.69,2471.27,2807.32,600.03,590.80,34.66,0000 0000 0000 0000 000000
2017-04-20 02:53:59,0.04,2.49,0.00,24.52,27.43,30.35,14.35,49.17,1012.77,2028.13,2608.65,2470.53,2806.41,599.62,590.59,34.71,0000 0000 0000 0000 000000
2017-04-20 02:59:00,0.06,2.49,0.00,24.46,27.45,30.29,14.32,49.26,1012.74,2028.06,2607.47,2469.80,2805.46,599.53,590.33,34.76,0000 0000 0000 0000 000000
2017-04-20 03:04:02,0.06,2.49,0.00,24.48,27.45,30.28,14.41,49.10,1012.74,2028.03,2606.31,2469.01,2804.60,600.23,591.08,34.82,0000 0000 0000 0000 000000
2017-04-20 03:09:03,0.07,2.50,0.00,24.59,27.47,30.27,14.35,49.03,1012.72,2028.01,2605.11,2468.15,2803.72,600.36,590.88,34.87,0000 0000 0000 0000 000000
2017-04-20 03:14:05,0.08,2.50,0.00,24.65,27.47,30.28,14.33,49.17,1012.72,2028.00,2603.93,2467.40,2802.77,599.92,590.38,34.92,0000 0000 0000 0000 000000
2017-04-20 03:19:06,0.08,2.51,0.00,24.66,27.49,30.28,14.30,49.13,1012.71,2028.00,2602.61,2466.60,2801.89,599.94,590.38,34.97,0000 0000 0000 0000 000000
2017-04-20 03:24:08,0.05,2.51,0.00,24.70,27.50,30.29,14.31,49.13,1012.71,2028.00,2601.55,2465.90,2800.99,599.73,590.12,35.02,0000 0000 0000 0000 000000
2017-04-20 03:29:08,0.07,2.51,0.00,24.63,27.51,30.29,14.37,49.21,1012.71,2028.00,2600.44,2465.07,2800.10,599.90,590.38,35.07,0000 0000 0000 0000 000000
2017-04-20 03:34:10,0.07,2.52,0.00,24.65,27.52,30.28,14.37,49.07,1012.71,2028.00,2599.32,2464.34,2799.28,599.99,590.44,35.12,0000 0000 0000 0000 000000
2017-04-20 03:39:11,0.06,2.52,0.00,24.65,27.53,30.30,14.35,49.08,1012.71,2027.99,2598.19,2463.63,2798.33,600.10,590.61,35.17,0000 0000 0000 0000 000000
2017-04-20 03:44:12,0.05,2.52,0.00,24.63,27.55,30.31,14.38,49.09,1012.71,2027.99,2597.15,2462.95,2797.60,599.87,590.46,35.22,0000 0000 0000 0000 000000
2017-04-20 03:49:13,0.07,2.53,0.00,24.66,27.56,30.32,14.36,49.01,1012.71,2027.98,2596.16,2462.13,2796.72,600.50,590.84,35.27,0000 0000 0000 0000 000000
2017-04-20 03:54:15,0.09,2.53,0.00,24.68,27.57,30.34,14.33,49.01,1012.70,2027.96,2594.83,2461.36,2795.78,600.23,590.62,35.32,0000 0000 0000 0000 000000
2017-04-20 03:59:16,0.06,2.53,0.00,24.66,27.60,30.34,14.31,49.06,1012.64,2027.88,2593.73,2460.56,2794.90,599.99,590.33,35.37,0000 0000 0000 0000 000000
2017-04-20 04:04:17,0.02,2.54,0.00,24.65,27.61,30.34,14.28,49.03,1012.48,2027.66,2592.67,2459.89,2794.03,600.01,590.39,35.42,0000 0000 0000 0000 000000
2017-04-20 04:09:18,0.07,2.54,0.00,24.62,27.63,30.34,14.31,49.08,1012.32,2027.53,2591.53,2459.05,2793.11,599.98,590.19,35.47,0000 0000 0000 0000 000000
2017-04-20 04:14:20,0.04,2.54,0.00,24.64,27.65,30.36,14.27,49.07,1012.31,2027.15,2590.16,2458.16,2792.17,599.53,589.70,35.52,0000 0000 0000 0000 000000
2017-04-20 04:19:21,0.07,2.55,0.00,24.63,27.67,30.37,14.38,49.21,1012.30,2027.06,2589.08,2457.42,2791.26,600.42,590.63,35.57,0000 0000 0000 0000 000000
2017-04-20 04:24:22,0.07,2.55,0.00,24.65,27.70,30.38,14.31,49.15,1012.33,2027.01,2587.86,2456.62,2790.34,600.00,590.21,35.62,0000 0000 0000 0000 000000
2017-04-20 04:29:24,0.06,2.55,0.00,24.67,27.72,30.38,14.37,49.11,1012.30,2027.00,2586.64,2455.87,2789.36,600.41,590.61,35.67,0000 0000 0000 0000 000000
2017-04-20 04:34:25,0.07,2.56,0.00,24.69,27.74,30.40,14.35,49.17,1012.25,2027.00,2585.50,2455.02,2788.44,600.40,590.39,35.72,0000 0000 0000 0000 000000
2017-04-20 04:39:26,0.07,2.56,0.00,24.71,27.76,30.41,14.25,49.19,1012.28,2027.00,2584.30,2454.14,2787.56,599.44,589.53,35.77,0000 0000 0000 0000 000000
2017-04-20 04:44:27,0.08,2.56,0.00,24.74,27.77,30.42,14.28,49.18,1012.30,2027.00,2583.18,2453.39,2786.61,599.76,589.82,35.83,0000 0000 0000 0000 000000
2017-04-20 04:49:29,0.08,2.57,0.00,24.79,27.80,30.43,14.31,49.26,1012.27,2026.99,2581.84,2452.60,2785.65,600.20,590.18,35.88,0000 0000 0000 0000 000000
2017-04-20 04:54:30,0.05,2.57,0.00,24.82,27.81,30.44,14.35,49.14,1012.24,2026.97,2580.74,2451.82,2784.77,600.18,589.99,35.93,0000 0000 0000 0000 000000
2017-04-20 04:59:31,0.07,2.58,0.00,24.86,27.83,30.44,14.33,49.02,1012.24,2026.91,2579.53,2450.97,2783.85,600.06,589.89,35.98,0000 0000 0000 0000 000000
2017-04-20 05:04:33,0.07,2.58,0.00,24.87,27.85,30.46,14.25,48.94,1012.23,2026.76,2578.18,2450.08,2782.70,599.88,589.77,36.03,0000 0000 0000 0000 000000
2017-04-20 05:09:34,0.06,2.58,0.00,24.91,27.86,30.46,14.31,49.13,1012.23,2026.76,2576.94,2449.25,2781.88,599.71,589.44,36.08,0000 0000 0000 0000 000000
2017-04-20 05:14:35,0.05,2.59,0.00,24.98,27.88,30.48,14.28,49.00,1012.23,2026.65,2575.92,2448.64,2781.03,599.70,589.28,36.13,0000 0000 0000 0000 000000
2017-04-20 05:19:36,0.02,2.59,0.00,25.04,27.90,30.51,14.28,48.96,1012.22,2026.27,2574.89,2447.88,2780.15,600.14,589.64,36.18,0000 0000 0000 0000 000000
2017-04-20 05:24:38,0.06,2.59,0.00,25.09,27.92,30.53,14.33,49.05,1012.22,2026.07,2573.76,2446.99,2779.18,599.92,589.04,36.23,0000 0000 0000 0000 000000
2017-04-20 05:29:39,0.08,2.59,0.00,25.15,27.95,30.53,14.27,48.98,1012.22,2026.03,2572.52,2446.10,2778.25,600.34,589.47,36.28,0000 0000 0000 0000 000000
2017-04-20 05:34:40,0.07,2.60,0.00,25.23,27.97,30.55,14.23,48.95,1012.22,2026.00,2571.44,2445.35,2777.31,599.56,588.62,36.33,0000 0000 0000 0000 000000
2017-04-20 05:39:41,0.07,2.60,0.00,25.28,28.01,30.58,14.27,48.97,1012.22,2026.00,2570.37,2444.59,2776.33,599.88,588.80,36.38,0000 0000 0000 0000 000000
2017-04-20 05:44:43,0.06,2.60,0.00,25.35,28.04,30.62,14.30,48.98,1012.22,2026.00,2569.33,2443.79,2775.48,600.06,588.72,36.43,0000 0000 0000 0000 000000
2017-04-20 05:49:44,0.07,2.61,0.00,25.42,28.07,30.67,14.23,48.86,1012.20,2025.96,2568.05,2442.89,2774.38,600.09,588.74,36.48,0000 0000 0000 0000 000000
2017-04-20 05:54:46,0.05,2.61,0.00,25.48,28.11,30.70,14.22,48.97,1012.18,2025.74,2566.80,2441.96,2773.43,599.32,587.84,36.53,0000 0000 0000 0000 000000
2017-04-20 05:59:47,0.04,2.61,0.00,25.55,28.14,30.75,14.30,49.04,1012.11,2025.19,2565.58,2441.02,2772.33,600.34,588.68,36.58,0000 0000 0000 0000 000000
2017-04-20 06:04:48,0.07,2.62,0.00,25.61,28.18,30.77,14.26,49.06,1012.03,2025.05,2564.19,2440.10,2771.29,600.22,588.30,36.63,0000 0000 0000 0000 000000
2017-04-20 06:09:49,0.07,2.62,0.00,25.68,28.21,30.82,14.29,48.94,1011.86,2025.02,2563.00,2439.34,2770.36,599.68,587.63,36.68,0000 0000 0000 0000 000000
2017-04-20 06:14:51,0.09,2.63,0.00,25.74,28.26,30.87,14.29,48.99,1011.78,2025.00,2561.68,2438.28,2769.21,600.05,587.78,36.73,0000 0000 0000 0000 000000
2017-04-20 06:19:52,0.08,2.63,0.00,25.80,28.29,30.92,14.28,48.88,1011.83,2024.98,2560.43,2437.35,2768.15,600.25,587.90,36.79,0000 0000 0000 0000 000000
2017-04-20 06:24:54,0.05,2.64,0.00,25.87,28.33,30.95,14.26,48.85,1011.80,2024.76,2559.09,2436.38,2766.97,600.15,587.69,36.84,0000 0000 0000 0000 000000
2017-04-20 06:29:55,0.05,2.64,0.00,25.93,28.37,31.00,14.25,48.88,1011.80,2024.24,2557.65,2435.34,2765.81,599.97,587.38,36.89,0000 0000 0000 0000 000000
2017-04-20 06:34:56,0.06,2.64,0.00,26.00,28.41,31.07,14.21,48.68,1011.79,2024.02,2556.43,2434.46,2764.75,600.06,587.21,36.94,0000 0000 0000 0000 000000
2017-04-20 06:39:57,0.09,2.64,0.00,26.06,28.46,31.10,14.17,48.63,1011.80,2024.00,2555.08,2433.46,2763.62,599.90,587.02,36.99,0000 0000 0000 0000 000000
2017-04-20 06:44:59,0.09,2.65,0.00,26.12,28.50,31.16,14.24,48.82,1011.78,2024.00,2553.72,2432.54,2762.55,600.12,587.06,37.04,0000 0000 0000 0000 000000
2017-04-20 06:50:00,0.08,2.65,0.00,26.18,28.54,31.21,14.18,48.91,1011.83,2023.95,2552.30,2431.57,2761.40,599.98,586.90,37.09,0000 0000 0000 0000 000000
2017-04-20 06:55:01,0.07,2.66,0.00,26.25,28.59,31.26,14.21,48.83,1011.79,2023.82,2550.85,2430.64,2760.21,599.94,586.75,37.14,0000 0000 0000 0000 000000
2017-04-20 07:00:03,0.02,2.66,0.00,26.31,28.64,31.31,14.14,48.92,1011.76,2023.22,2549.60,2429.68,2759.18,599.75,586.34,37.19,0000 0000 0000 0000 000000
2017-04-20 07:05:04,0.07,2.66,0.00,26.39,28.68,31.36,14.31,48.83,1011.76,2023.01,2548.25,2428.71,2758.00,600.15,586.62,37.24,0000 0000 0000 0000 000000
2017-04-20 07:10:05,0.09,2.67,0.00,26.44,28.73,31.42,14.15,48.73,1011.76,2023.00,2546.93,2427.71,2756.87,599.87,586.18,37.29,0000 0000 0000 0000 000000
2017-04-20 07:15:06,0.09,2.67,0.00,26.50,28.78,31.49,14.15,48.72,1011.79,2022.93,2545.55,2426.63,2755.64,600.14,586.31,37.34,0000 0000 0000 0000 000000
2017-04-20 07:20:08,0.03,2.67,0.00,26.56,28.83,31.53,14.23,48.78,1011.76,2022.55,2544.11,2425.64,2754.56,599.83,586.02,37.39,0000 0000 0000 0000 000000
2017-04-20 07:25:09,0.07,2.68,0.00,26.62,28.88,31.59,14.20,48.77,1011.89,2022.12,2542.71,2424.64,2753.35,599.84,585.95,37.44,0000 0000 0000 0000 000000
2017-04-20 07:30:11,0.17,2.68,0.00,26.69,28.93,31.64,14.15,49.01,1011.99,2022.00,2540.49,2422.94,2751.50,599.95,586.03,37.49,0000 0000 0000 0000 000000
2017-04-20 07:35:12,0.22,2.69,0.00,26.76,28.98,31.69,14.20,48.88,1012.08,2021.98,2537.29,2420.45,2748.94,599.76,585.88,37.54,0000 0000 0000 0000 000000
2017-04-20 07:40:14,0.12,2.70,0.00,26.82,29.03,31.76,14.16,48.92,1012.14,2021.87,2534.96,2418.78,2747.02,599.87,585.73,37.59,0000 0000 0000 0000 000000
2017-04-20 07:45:15,0.03,2.71,0.00,26.87,29.07,31.81,14.17,48.80,1012.20,2021.33,2533.48,2417.74,2745.78,600.07,585.84,37.65,0000 0000 0000 0000 000000
2017-04-20 07:50:17,0.12,2.71,0.00,26.95,29.12,31.87,14.20,48.80,1012.22,2021.02,2531.58,2416.33,2744.22,600.07,585.70,37.70,0000 0000 0000 0000 000000
2017-04-20 07:55:18,0.24,2.72,0.00,27.01,29.17,31.92,14.14,48.79,1012.22,2021.00,2528.43,2413.92,2741.44,599.70,585.17,37.75,0000 0000 0000 0000 000000
2017-04-20 08:00:19,0.21,2.73,0.00,27.07,29.22,31.98,14.12,48.48,1012.22,2020.96,2525.09,2411.50,2738.81,600.11,585.49,37.80,0000 0000 0000 0000 000000
2017-04-20 08:05:20,0.15,2.74,0.00,27.15,29.27,32.03,14.13,48.69,1012.22,2020.53,2521.82,2409.21,2736.22,599.82,585.04,37.85,0000 0000 0000 0000 000000
2017-04-20 08:10:21,0.18,2.75,0.00,27.21,29.31,32.08,14.16,48.61,1012.23,2020.08,2518.68,2406.99,2733.74,599.94,585.10,37.90,0000 0000 0000 0000 000000
2017-04-20 08:15:22,0.15,2.76,0.00,27.27,29.36,32.15,14.18,48.75,1012.23,2020.00,2516.19,2405.21,2731.73,599.95,585.07,37.95,0000 0000 0000 0000 000000
2017-04-20 08:20:23,0.17,2.77,0.00,27.33,29.41,32.20,14.19,48.59,1012.23,2019.98,2513.64,2403.45,2729.74,599.88,584.74,38.00,0000 0000 0000 0000 000000
2017-04-20 08:25:24,0.16,2.78,0.00,27.38,29.46,32.26,14.14,48.63,1012.25,2019.86,2510.91,2401.58,2727.66,599.90,584.73,38.05,0000 0000 0000 0000 000000
2017-04-20 08:30:26,0.10,2.78,0.00,27.43,29.50,32.31,14.21,48.63,1012.33,2019.25,2508.22,2399.73,2725.52,600.10,584.82,38.10,0000 0000 0000 0000 000000
2017-04-20 08:35:27,0.13,2.79,0.00,27.46,29.55,32.36,14.06,48.58,1012.53,2019.01,2505.85,2397.99,2723.68,599.57,584.37,38.15,0000 0000 0000 0000 000000
2017-04-20 08:40:28,0.13,2.80,0.00,27.49,29.60,32.41,14.16,48.54,1012.53,2019.00,2503.97,2396.65,2722.11,599.87,584.54,38.20,0000 0000 0000 0000 000000
2017-04-20 08:45:29,0.12,2.80,0.00,27.53,29.64,32.46,14.21,48.67,1012.47,2018.96,2502.03,2395.23,2720.50,600.33,584.98,38.25,0000 0000 0000 0000 000000
2017-04-20 08:50:31,0.10,2.81,0.00,27.56,29.68,32.51,14.15,48.57,1012.60,2018.70,2500.03,2393.80,2718.83,600.11,584.81,38.30,0000 0000 0000 0000 000000
2017-04-20 08:55:32,0.06,2.81,0.00,27.60,29.72,32.55,14.13,48.57,1012.66,2018.10,2498.29,2392.62,2717.44,599.65,584.34,38.35,0000 0000 0000 0000 000000
2017-04-20 09:00:34,0.10,2.82,0.00,27.61,29.76,32.59,14.13,48.42,1012.70,2018.01,2496.63,2391.38,2716.06,600.39,584.97,38.40,0000 0000 0000 0000 000000
2017-04-20 09:05:35,0.09,2.82,0.00,27.66,29.80,32.63,14.13,48.59,1012.70,2018.00,2495.32,2390.37,2714.86,599.87,584.43,38.45,0000 0000 0000 0000 000000
2017-04-20 09:10:36,0.10,2.83,0.00,27.69,29.84,32.68,14.12,48.38,1012.70,2017.97,2493.78,2389.29,2713.61,600.09,584.74,38.50,0000 0000 0000 0000 000000
2017-04-20 09:15:37,0.06,2.83,0.00,27.71,29.88,32.72,14.22,48.42,1012.70,2017.69,2492.28,2388.15,2712.36,600.34,584.75,38.55,0000 0000 0000 0000 000000
2017-04-20 09:20:39,0.07,2.83,0.00,27.74,29.92,32.76,14.11,48.41,1012.70,2017.21,2490.65,2386.96,2711.03,600.05,584.44,38.61,0000 0000 0000 0000 000000
2017-04-20 09:25:40,0.14,2.84,0.00,27.76,29.96,32.80,14.11,48.50,1012.71,2017.01,2488.65,2385.52,2709.37,599.62,583.98,38.66,0000 0000 0000 0000 000000
2017-04-20 09:30:41,0.10,2.85,0.00,27.77,29.99,32.82,14.14,48.48,1012.71,2017.00,2487.08,2384.34,2707.96,599.96,584.19,38.71,0000 0000 0000 0000 000000
2017-04-20 09:35:43,0.11,2.85,0.00,27.79,30.03,32.86,14.12,48.48,1012.71,2017.00,2485.45,2383.23,2706.65,599.98,584.39,38.76,0000 0000 0000 0000 000000
2017-04-20 09:40:45,0.10,2.86,0.00,27.81,30.06,32.91,14.15,48.42,1012.71,2016.92,2483.74,2381.98,2705.39,599.73,583.95,38.81,0000 0000 0000 0000 000000
2017-04-20 09:45:46,0.05,2.86,0.00,27.81,30.10,32.94,14.11,48.39,1012.71,2016.41,2482.08,2380.85,2703.98,599.85,584.12,38.86,0000 0000 0000 0000 000000
2017-04-20 09:50:47,0.08,2.86,0.00,27.80,30.13,32.99,14.13,48.47,1012.71,2016.06,2480.63,2379.77,2702.72,600.21,584.46,38.91,0000 0000 0000 0000 000000
2017-04-20 09:55:49,0.10,2.87,0.00,27.81,30.16,33.02,14.12,48.38,1012.71,2016.00,2479.17,2378.69,2701.48,600.09,584.28,38.96,0000 0000 0000 0000 000000
2017-04-20 10:00:50,0.16,2.88,0.00,27.80,30.19,33.04,14.10,48.35,1012.71,2016.00,2476.76,2377.12,2699.73,599.78,584.06,39.01,0000 0000 0000 0000 000000
2017-04-20 10:05:51,0.19,2.89,0.00,27.78,30.21,33.09,14.16,48.44,1012.72,2016.00,2473.97,2375.25,2697.56,599.93,584.31,39.06,0000 0000 0000 0000 000000
2017-04-20 10:10:52,0.15,2.90,0.00,27.77,30.23,33.11,14.11,48.31,1012.73,2015.98,2471.74,2373.45,2695.58,599.85,584.21,39.11,0000 0000 0000 0000 000000
2017-04-20 10:15:54,0.11,2.90,0.00,27.78,30.26,33.14,14.13,48.52,1012.73,2015.93,2469.81,2372.18,2694.06,599.95,584.26,39.16,0000 0000 0000 0000 000000
2017-04-20 10:20:55,0.09,2.91,0.00,27.76,30.27,33.18,14.21,48.44,1012.72,2015.61,2467.73,2370.72,2692.46,600.30,584.74,39.21,0000 0000 0000 0000 000000
2017-04-20 10:25:56,0.09,2.91,0.00,27.75,30.30,33.22,14.10,48.44,1012.73,2015.12,2466.01,2369.44,2690.93,599.87,584.30,39.26,0000 0000 0000 0000 000000
2017-04-20 10:30:57,0.13,2.92,0.00,27.73,30.30,33.24,14.19,48.39,1012.73,2015.03,2464.04,2368.11,2689.47,600.11,584.52,39.31,0000 0000 0000 0000 000000
2017-04-20 10:35:59,0.16,2.93,0.00,27.71,30.32,33.25,14.18,48.42,1012.74,2015.02,2461.54,2366.58,2687.54,600.09,584.63,39.36,0000 0000 0000 0000 000000
2017-04-20 10:41:00,0.14,2.93,0.00,27.66,30.32,33.27,14.22,48.50,1012.72,2015.00,2459.69,2365.26,2686.11,600.15,584.70,39.41,0000 0000 0000 0000 000000
2017-04-20 10:46:01,0.34,2.95,0.00,27.63,30.33,33.30,14.18,48.37,1012.74,2014.99,2455.30,2362.13,2682.64,600.05,584.68,39.46,0000 0000 0000 0000 000000
2017-04-20 10:51:02,0.35,2.96,0.00,27.59,30.35,33.31,14.19,48.32,1012.73,2014.99,2450.52,2358.54,2678.58,600.13,584.88,39.52,0000 0000 0000 0000 000000
2017-04-20 10:56:04,0.39,2.98,0.00,27.55,30.35,33.26,14.19,48.27,1012.73,2014.99,2445.40,2354.66,2674.26,600.05,584.80,39.57,0000 0000 0000 0000 000000
2017-04-20 11:01:05,0.43,3.00,0.00,27.51,30.34,33.24,14.22,48.38,1012.72,2014.98,2439.59,2350.34,2669.40,599.90,584.75,39.62,0000 0000 0000 0000 000000
2017-04-20 11:06:07,0.36,3.02,0.00,27.48,30.32,33.23,14.18,48.44,1012.73,2014.99,2434.40,2346.43,2665.05,600.07,584.89,39.67,0000 0000 0000 0000 000000
2017-04-20 11:11:08,0.29,3.04,0.00,27.47,30.32,33.19,14.25,48.34,1012.72,2014.99,2430.33,2343.33,2661.55,600.43,585.31,39.72,0000 0000 0000 0000 000000
2017-04-20 11:16:09,0.23,3.05,0.00,27.42,30.31,33.23,14.24,48.38,1012.72,2014.98,2427.00,2340.98,2658.93,600.04,585.06,39.77,0000 0000 0000 0000 000000
2017-04-20 11:21:11,0.23,3.06,0.00,27.38,30.30,33.21,14.23,48.37,1012.74,2014.99,2423.72,2338.66,2656.23,600.11,585.20,39.82,0000 0000 0000 0000 000000
2017-04-20 11:26:12,0.19,3.07,0.00,27.35,30.29,33.18,14.21,48.47,1012.76,2014.96,2421.42,2336.53,2653.86,600.16,585.29,39.87,0000 0000 0000 0000 000000
2017-04-20 11:31:14,0.49,3.09,0.00,27.30,30.27,33.20,14.27,48.50,1012.75,2014.98,2415.50,2332.07,2648.89,599.85,585.11,39.92,0000 0000 0000 0000 000000
2017-04-20 11:36:15,0.47,3.12,0.00,27.26,30.25,33.18,14.24,48.41,1012.80,2014.97,2409.18,2327.23,2643.52,600.11,585.50,39.97,0000 0000 0000 0000 000000
2017-04-20 11:41:16,0.48,3.14,0.00,27.22,30.24,33.17,14.16,48.33,1012.77,2014.98,2402.90,2322.41,2638.20,600.00,585.38,40.02,0000 0000 0000 0000 000000
2017-04-20 11:46:17,0.49,3.17,0.00,27.20,30.22,33.11,14.20,48.38,1012.74,2014.99,2396.46,2317.44,2632.67,600.12,585.51,40.07,0000 0000 0000 0000 000000
2017-04-20 11:51:18,0.52,3.19,0.00,27.17,30.20,33.14,14.22,48.65,1012.75,2014.99,2389.88,2312.31,2627.04,599.97,585.62,40.12,0000 0000 0000 0000 000000
2017-04-20 11:56:20,0.50,3.22,0.00,27.12,30.17,33.14,14.25,48.60,1012.75,2015.00,2383.31,2307.16,2621.46,599.91,585.59,40.17,0000 0000 0000 0000 000000
2017-04-20 12:01:21,0.44,3.24,0.00,27.07,30.15,33.09,14.28,48.58,1012.78,2015.01,2377.45,2302.60,2616.41,599.86,585.54,40.22,0000 0000 0000 0000 000000
2017-04-20 12:06:22,0.36,3.26,0.00,27.03,30.12,33.05,14.21,48.42,1012.77,2015.02,2372.47,2298.77,2612.08,599.91,585.62,40.27,0000 0000 0000 0000 000000
2017-04-20 12:11:23,0.34,3.28,0.00,26.99,30.10,33.01,14.23,48.39,1012.75,2015.12,2368.30,2295.67,2608.62,599.75,585.63,40.32,0000 0000 0000 0000 000000
2017-04-20 12:16:25,0.45,3.30,0.00,26.97,30.07,32.98,14.19,48.36,1012.73,2015.42,2363.36,2291.83,2604.37,599.76,585.67,40.37,0000 0000 0000 0000 000000
2017-04-20 12:21:25,0.45,3.32,0.00,26.94,30.04,32.95,14.26,48.47,1012.73,2015.82,2357.97,2287.70,2599.73,600.06,586.03,40.43,0000 0000 0000 0000 000000
2017-04-20 12:26:26,0.41,3.35,0.00,26.90,30.01,32.98,14.17,48.30,1012.71,2015.96,2352.84,2283.72,2595.33,599.75,585.84,40.48,0000 0000 0000 0000 000000
2017-04-20 12:31:28,0.33,3.36,0.00,26.86,29.99,32.92,14.20,48.48,1012.71,2015.98,2348.57,2280.32,2591.56,600.08,586.12,40.53,0000 0000 0000 0000 000000
2017-04-20 12:36:29,0.25,3.38,0.00,26.82,29.96,32.89,14.19,48.46,1012.71,2015.99,2345.13,2277.64,2588.53,599.96,586.14,40.58,0000 0000 0000 0000 000000
2017-04-20 12:41:30,0.17,3.39,0.00,26.79,29.93,32.83,14.23,48.49,1012.72,2015.99,2342.73,2275.80,2586.45,599.96,586.21,40.63,0000 0000 0000 0000 000000
2017-04-20 12:46:31,0.46,3.41,0.00,26.77,29.90,32.83,14.26,48.52,1012.72,2015.99,2337.87,2272.09,2582.34,600.02,586.38,40.68,0000 0000 0000 0000 000000
2017-04-20 12:51:33,0.55,3.43,0.00,26.74,29.87,32.79,14.23,48.50,1012.71,2015.99,2331.15,2266.68,2576.41,599.90,586.29,40.73,0000 0000 0000 0000 000000
2017-04-20 12:56:34,0.52,3.46,0.00,26.70,29.84,32.75,14.23,48.47,1012.71,2016.00,2324.72,2261.46,2570.70,600.10,586.51,40.78,0000 0000 0000 0000 000000